Hauptseite
METAR-TAF:

METAR-TAF

Flughäfen :

Bohrplattform

A12-cpp, Niederlande

Breite: 55-23-57N, Länge: 3-48-37E, Höhe: 33 m

Beobachtung

Neuester Wetterbericht von vor 23 Minuten, um 23:55 UTC
Wind 9 kt aus Südost, variierte zwischen Ost/Nordost und Süd/Südwest
Temperatur 13°C
Luftfeuchtigkeit 94%
Luftdruck 1007 hPa
Sichtweite 10 km oder mehr
Sprühregen

METAR: EHAK 232355Z AUTO 14009KT 060V200 9999 DZ FEW005/// BKN036/// 13/12 Q1007 W///H///

Zeit: 02:18 (00:18 UTC)


TAF: fehlend

Wetterbeobachtungen und Prognosen von mehr als 4000 Flughäfen (METAR und TAF Bericht).

Die verfügbaren Stationen werden durch gelbe und rote Markierungen auf der Karte dargestellt.

Führen Sie die Maus auf sie, um den Namen der Station zu sehen.

Darauf klicken, um die Beobachtung von Wetterbeobachtungen und Prognosen zu sehen.

Um die Karte zu ändern : klicken Sie auf den grünen Tasten mit einem schwarzen Kreuz Zum Vergrößern, auf den grünen Button mit einem Gedankenstrich zu verkleinern, oder auf die grünen Pfeile für benachbarte Karten.


METAR-TAF: